カタログに戻る

CFOSAT

運用中科学SSO
NORAD 43662·PAYLOAD·🇨🇳 China

打ち上げ Oct 29, 2018 から Jiuquan Satellite Launch Center

Loading…

次のパス (今後24時間)

TLE

最新Source: Space-Track

元期: Sep 14, 2026, 15:19 UTC

1 43662U 18083A   26257.63870529  .00002518  00000-0  13308-3 0  9997
2 43662  97.3653 259.5543 0002570 120.7396 239.4091 15.16374276435991

AllMySatでCFOSATをリアルタイム追跡

Download on the App Store